Hourly Data Report for July 01, 2022

BANCROFT AUTO
ONTARIO
Current Station Operator: ECCC - MSC

45°04'17.000" N
77°52'44.000" W
330.70 m
616I001
71294
WRK

Download Data

Hourly Data (July 2022)
Hourly Data Report for July 1, 2022
TIME
LST
Temp Definition
°C
Dew Point Definition
°C
Rel Hum Definition
%
Precip. Amount Definition
mm

Wind Dir Definition
10's deg

Wind Spd Definition
km/h
Visibility Definition
km
Stn Press Definition
kPa
Hmdx Definition


Wind Chill Definition


Weather Definition


00:00 18.5 14.5 77 0.0 18 3   97.58     LegendNANA
01:00 19.2 14.3 73 0.0 20 7   97.49     LegendNANA
02:00 19.1 14.0 73 0.0 18 7   97.42     LegendNANA
03:00 18.7 13.9 73 0.0 18 7   97.32     LegendNANA
04:00 18.9 13.9 73 0.0 19 8   97.28     LegendNANA
05:00 18.6 13.9 74 0.0 20 7   97.28     LegendNANA
06:00 18.1 14.7 80 0.0 9 1   97.41     LegendNANA
07:00 18.3 16.0 87 0.0 3 2   97.44     LegendNANA
08:00 18.5 16.2 86 0.0 16 4   97.43     LegendNANA
09:00 18.8 16.3 85 0.1 20 6   97.29     LegendNANA
10:00 20.2 15.1 73 0.0 23 6   97.35     LegendNANA
11:00 20.6 15.9 74 0.0 25 4   97.35 25   LegendNANA
12:00 21.1 16.1 73 0.0 20 6   97.32 26   LegendNANA
13:00 22.9 17.4 71 0.0 21 6   97.26 28   LegendNANA
14:00 25.1 15.4 55 0.0 21 11   97.21 29   LegendNANA
15:00 26.2 16.0 53 0.0 22 11   97.16 31   LegendNANA
16:00 25.9 14.1 48 0.0 24 9   97.12 29   LegendNANA
17:00 25.7 15.5 54 0.0 24 6   97.09 30   LegendNANA
18:00 24.6 16.7 61 0.0 24 3   97.07 30   LegendNANA
19:00 23.1 17.7 72 0.0 29 4   97.05 29   LegendNANA
20:00 22.0 18.1 79 0.0 28 2   97.05 28   LegendNANA
21:00 20.7 17.5 82 0.0 24 3   97.12 26   LegendNANA
22:00 19.7 14.6 72 0.0 26 5   97.12     LegendNANA
23:00 18.8 13.9 73 0.0 28 5   97.12     LegendNANA

Notes on Data Quality.

Legend

  • E = Estimated
  • M = Missing
  • NA = Not Available*
  • [empty] = Indicates an unobserved value
Date modified: